User: anonymous   Login
Location: Zagreb
(45.8000°N, 16.0000°E)
Time: 00:17:29
(UTC+01:00)
Language:

YUBILEINY - Orbit

View from above orbital plane
View from above orbital plane
View from above satellite
View from above satellite

Ground track
Ground track

The orbit data is extracted from the following two-line orbital elements,

1 32953U 08025A   20304.77009439  .00000037  00000-0  19437-3 0  9992
2 32953  82.5056 193.7615 0019577 116.0862 244.2234 12.43098738564444
Epoch (UTC): 30 October 2020 18:28:56
Eccentricity: 0.0019577
inclination: 82.5056°
perigee height: 1478 km
apogee height: 1509 km
right ascension of ascending node: 193.7615°
argument of perigee: 116.0862°
revolutions per day: 12.43098738
mean anomaly at epoch: 244.2234°
orbit number at epoch: 56444

The dashed part of the orbit path shows where the satellite is in the earth's shadow,  

DLR